McCook, NE

1:41 PM CDT on April 22, 2018 (GMT -0500)
McCook Municipal

Weather History for KMCK - August, 2014

Change the Weather History Date:

Thursday, August 21, 2014

  Actual Average Record
Temperature  
Mean Temperature 82 °F 73 °F  
Max Temperature 97 °F 87 °F 104 °F (1929)
Min Temperature 66 °F 59 °F 44 °F (2016)
Cooling Degree Days 16    
Growing Degree Days 32 (Base 50)    
Moisture  
Dew Point 60 °F    
Average Humidity 54    
Maximum Humidity 84    
Minimum Humidity 23    
Precipitation  
Precipitation 0.00 in 0.09 in 2.50 in (1978)
Month to date precipitation 1.69 2.36  
Year to date precipitation 16.82 16.93  
Sea Level Pressure  
Sea Level Pressure 29.79 in    
Wind  
Wind Speed 7 mph (NNE)    
Max Wind Speed 12 mph    
Max Gust Speed -    
Visibility 10 miles    
Events      
T = Trace of Precipitation, MM = Missing Value Source: NWS Daily Summary

Daily Weather History Graph

Daily Weather History Graph

Search for Another Location

Airport or City:

Astronomy

Aug. 21, 2014 Rise Set
Actual Time 6:59 AM CDT 8:30 PM CDT
Civil Twilight 6:30 AM CDT 8:59 PM CDT
Nautical Twilight 5:56 AM CDT 9:33 PM CDT
Astronomical Twilight 5:19 AM CDT 10:10 PM CDT
Moon 3:31 AM CDT (8/21) 6:00 PM CDT (8/21)
Length of Visible Light 14h 28m
Length of Day
13h 31m
Waning Crescent, 13% of the Moon is Illuminated
Aug 21
Waning Crescent
Aug 25
New
Sep 2
First Quarter
Sep 8
Full
Sep 15
Last Quarter

Hourly Weather History & Observations

Time (CDT) Temp. Heat Index Dew Point Humidity Pressure Visibility Wind Dir Wind Speed Gust Speed Precip Events Conditions
12:53 AM 75.0 °F - 62.1 °F 64% 29.70 in 10.0 mi ENE 5.8 mph - N/A   Clear
1:53 AM 72.0 °F - 63.0 °F 73% 29.72 in 10.0 mi NNE 8.1 mph - N/A   Scattered Clouds
2:53 AM 71.1 °F - 63.0 °F 75% 29.72 in 10.0 mi NE 8.1 mph - N/A   Clear
3:53 AM 70.0 °F - 64.0 °F 81% 29.70 in 10.0 mi East 8.1 mph - N/A   Clear
4:53 AM 68.0 °F - 63.0 °F 84% 29.72 in 10.0 mi North 3.5 mph - N/A   Clear
5:53 AM 68.0 °F - 63.0 °F 84% 29.75 in 10.0 mi NW 11.5 mph - N/A   Clear
6:53 AM 69.1 °F - 61.0 °F 75% 29.76 in 10.0 mi North 9.2 mph - N/A   Clear
7:53 AM 73.0 °F - 60.1 °F 64% 29.78 in 10.0 mi North 9.2 mph - N/A   Clear
8:53 AM 77.0 °F - 60.1 °F 56% 29.79 in 10.0 mi North 6.9 mph - N/A   Clear
9:53 AM 79.0 °F - 60.1 °F 52% 29.80 in 10.0 mi East 4.6 mph - N/A   Clear
10:53 AM 82.0 °F 83.0 °F 62.1 °F 51% 29.82 in 10.0 mi South 6.9 mph - N/A   Clear
11:53 AM 89.1 °F 87.7 °F 57.0 °F 34% 29.82 in 10.0 mi NW 8.1 mph - N/A   Clear
12:53 PM 91.0 °F 89.7 °F 57.0 °F 32% 29.81 in 10.0 mi NW 11.5 mph - N/A   Clear
1:53 PM 93.0 °F 91.4 °F 55.9 °F 29% 29.81 in 10.0 mi Variable 4.6 mph - N/A   Clear
2:53 PM 93.9 °F 91.7 °F 54.0 °F 26% 29.80 in 10.0 mi North 5.8 mph - N/A   Clear
3:53 PM 93.9 °F 92.0 °F 55.0 °F 27% 29.81 in 10.0 mi NNW 6.9 mph - N/A   Clear
4:53 PM 93.0 °F 90.6 °F 53.1 °F 26% 29.80 in 10.0 mi NW 3.5 mph - N/A   Clear
5:53 PM 95.0 °F 93.0 °F 55.0 °F 26% 29.80 in 10.0 mi NNW 8.1 mph - N/A   Clear
6:53 PM 93.0 °F - 50.0 °F 23% 29.80 in 10.0 mi NNW 5.8 mph - N/A   Clear
7:53 PM 90.0 °F 87.5 °F 53.1 °F 28% 29.80 in 10.0 mi Calm Calm - N/A   Clear
8:53 PM 81.0 °F 83.0 °F 66.0 °F 60% 29.83 in 10.0 mi ENE 8.1 mph - N/A   Clear
9:53 PM 75.9 °F - 64.9 °F 69% 29.86 in 10.0 mi NE 4.6 mph - N/A   Clear
10:53 PM 73.0 °F - 64.9 °F 76% 29.86 in 10.0 mi ENE 5.8 mph - N/A   Clear
11:53 PM 72.0 °F - 66.0 °F 81% 29.87 in 10.0 mi NNE 5.8 mph - N/A   Clear